SL-14 DEB

Satellite information

Favourite Embed

Satellite Type and Status

DEBRISIN ORBIT

Key statistics

Satellite SL-14 DEB at a glance.

Uptime

12379

Days in orbit

Revolutions

≈ 13.7

Per day

Orbit

LEO

Low Earth Orbit

Inclination

82.6

Latest

Satellite identification and parameters

Extended collection of information and parameters for SL-14 DEB.

Object identification

Identified? True

Debris? True

Object name: SL-14 DEB

International designator: 1991-056CC

Object number (NORAD): 45338

Object ID (CCSDS): 45338

Country: COMMONWEALTH OF INDEPENDENT STATES (CIS)

Current information (Y/N): Y

RCS size: SMALL

Orbital parameters

Period: 104.767 minutes

Inclination: 82.5648 deg

SMA: 7361.675 km

Apoapsis: 1084.347 km

Periapsis: 882.733 km

RAAN: 296.3993 deg

Eccentricy: 0.0136935

Argument of periapsis: 262.5968 deg

Mean anomaly: 95.9609 deg

Mean motion: 13.74478031 rev/day

Mean motion (dot): 0.00008186 rev/day2

B* drag term: 0.0080708 1/REarth

Two-line elements (TLE)

Creation date: July 5, 2025, 5:45 p.m.

Reference frame: TEME

Reference center: EARTH

Epoch: July 5, 2025, 6:06 a.m. UTC

TLE line 0: 0 SL-14 DEB

TLE line 1: 1 45338U 91056CC 25186.25456335 .00008186 00000-0 80708-2 0 9997

TLE line 2: 2 45338 82.5648 296.3993 0136935 262.5968 95.9609 13.74478031263944

Live tracking on map

Real-time ground track for satellite SL-14 DEB.

In-orbit conjunctions

A list of the most updated potential collisions computed for object SL-14 DEB.

Target Orbit TCA Probability of collision Miss distance Type
MOS 1A (MOMO 1) SSO 2025-04-30 22:54:48 0.0001118759 370.0 (m) PAYLOAD
GGSE 3 LEO 2025-03-21 03:45:54 0.0002196244 872.0 (m) PAYLOAD

Associated space launch

Third generation meteorological satellite

SL-14 DEB was lifted into orbit during the mission ‘Tsiklon-3 | Meteor-3 5’, on board a Tsiklon-3 space rocket.

The launch took place on Aug. 15, 1991, 9:15 a.m. from 32/2.

For more information about the launch, click the button.

Launch to space Tsiklon-3 | Meteor-3 5
Tsiklon-3 | Meteor-3 5

Agency: N/A

Status: Launch Successful

Launch date: Aug. 15, 1991, 9:15 a.m. UTC

Rocket: Tsiklon-3

Launch pad: 32/2

Location: Plesetsk Cosmodrome, Russian Federation

...

Latest news about this satellite

There are no fresh news available about this satellite. Check back as we update our databases every day.


Newsletter sign-up

Weekly statistics, charts and insights to help you stay on top of the space industry.